Location: Doux
(49.5045°N, 4.4321°E)
Time: 02:26:58
(UTC+00:00)

Helios 1A Rocket - Pass Details

Date: 23 May 2024
Orbit: 520 x 543 km, 98.3° (Epoch: 21 June)

Event Time Altitude Azimuth Distance (km) Brightness Sun altitude
Exits shadow 01:45:16 18° 251° (WSW) 1,351 4.4 -14.5°
Maximum altitude 01:46:02 19° 267° (W) 1,309 4.4 -14.4°
Drops below altitude 10° 01:48:52 10° 314° (NW) 1,795 5.6 -14.2°
Sets 01:51:28 0° 332° (NNW) 2,686 6.8 -13.9°
